Moses Lake, WA

5:44 PM PST on December 05, 2016 (GMT -0800)
Grant County International

Weather History for KMWH - May, 2014

Change the Weather History Date:

Tuesday, May 20, 2014

  Actual Average Record
Temperature  
Mean Temperature 62 °F 60 °F  
Max Temperature 80 °F 75 °F 87 °F (1985)
Min Temperature 44 °F 46 °F 38 °F (1982)
Degree Days  
Heating Degree Days 3 6  
Month to date heating degree days 97 162  
Since 1 July heating degree days 5609 5779  
Cooling Degree Days 0 1  
Month to date cooling degree days 11 10  
Year to date cooling degree days 11 11  
Growing Degree Days 12 (Base 50)    
Moisture  
Dew Point 38 °F    
Average Humidity 51    
Maximum Humidity 83    
Minimum Humidity 19    
Precipitation  
Precipitation 0.00 in 0.02 in 0.20 in (2006)
Month to date precipitation 0.15 0.38  
Year to date precipitation 2.78 3.80  
Sea Level Pressure  
Sea Level Pressure 29.98 in    
Wind  
Wind Speed 6 mph (North)    
Max Wind Speed 13 mph    
Max Gust Speed 16 mph    
Visibility 10 miles    
Events      
T = Trace of Precipitation, MM = Missing Value Source: NWS Daily Summary

Daily Weather History Graph

Daily Weather History Graph

Search for Another Location

Airport or City:

Trip Planner

Search our weather history database for the weather conditions in past years. The results will help you decide how hot, cold, wet, or windy it might be!

Date:

Astronomy

May. 20, 2014 Rise Set
Actual Time 5:15 AM PDT 8:32 PM PDT
Civil Twilight 4:38 AM PDT 9:10 PM PDT
Nautical Twilight 3:49 AM PDT 9:58 PM PDT
Astronomical Twilight 2:48 AM PDT 11:01 PM PDT
Moon 12:56 AM PDT (5/20) 11:39 AM PDT (5/20)
Length of Visible Light 16h 31m
Length of Day
15h 17m
Waning Gibbous, 59% of the Moon is Illuminated
May 20
Waning Gibbous
May 21
Last Quarter
May 28
New
Jun 5
First Quarter
Jun 12
Full

Hourly Weather History & Observations

Time (PDT) Temp. Windchill Dew Point Humidity Pressure Visibility Wind Dir Wind Speed Gust Speed Precip Events Conditions
12:52 AM 52.0 °F - 37.9 °F 59% 29.97 in 10.0 mi NNE 4.6 mph - N/A   Clear
1:52 AM 48.2 °F - 39.2 °F 71% 29.98 in 10.0 mi North 4.6 mph - N/A   Clear
2:52 AM 46.0 °F 43.9 °F 39.0 °F 76% 29.99 in 10.0 mi North 4.6 mph - N/A   Clear
3:52 AM 45.0 °F 41.2 °F 39.0 °F 80% 30.00 in 10.0 mi North 6.9 mph - N/A   Clear
4:52 AM 45.0 °F 41.8 °F 39.0 °F 80% 30.00 in 10.0 mi NNE 5.8 mph - N/A   Clear
5:52 AM 45.0 °F 42.6 °F 39.0 °F 80% 30.01 in 10.0 mi NNE 4.6 mph - N/A   Clear
6:52 AM 48.9 °F - 39.9 °F 71% 30.02 in 10.0 mi NNE 5.8 mph - N/A   Clear
7:52 AM 55.9 °F - 41.0 °F 57% 30.03 in 10.0 mi North 5.8 mph - N/A   Clear
8:52 AM 64.0 °F - 42.1 °F 45% 30.03 in 10.0 mi North 8.1 mph - N/A   Clear
9:52 AM 69.1 °F - 42.1 °F 38% 30.02 in 10.0 mi NE 4.6 mph - N/A   Clear
10:52 AM 72.0 °F - 41.0 °F 33% 30.01 in 10.0 mi NE 5.8 mph - N/A   Clear
11:52 AM 73.0 °F - 37.9 °F 28% 30.01 in 10.0 mi North - - N/A   Clear
12:52 PM 75.9 °F - 39.0 °F 26% 30.00 in 10.0 mi West 5.8 mph - N/A   Scattered Clouds
1:52 PM 75.2 °F - 35.6 °F 24% 29.99 in 10.0 mi South 6.9 mph - N/A   Clear
2:52 PM 75.9 °F - 36.0 °F 23% 29.98 in 10.0 mi South 8.1 mph - N/A   Clear
3:52 PM 78.1 °F - 34.0 °F 20% 29.97 in 10.0 mi Variable 4.6 mph - N/A   Clear
4:52 PM 78.1 °F - 32.0 °F 19% 29.96 in 10.0 mi Variable 3.5 mph - N/A   Clear
5:52 PM 78.1 °F - 34.0 °F 20% 29.95 in 10.0 mi SW 4.6 mph - N/A   Clear
6:52 PM 77.0 °F - 35.1 °F 22% 29.94 in 10.0 mi SSW 6.9 mph - N/A   Clear
7:52 PM 75.9 °F - 34.0 °F 22% 29.93 in 10.0 mi SSE 6.9 mph - N/A   Clear
8:52 PM 73.9 °F - 34.0 °F 23% 29.93 in 10.0 mi South 5.8 mph - N/A   Clear
9:52 PM 70.0 °F - 44.1 °F 39% 29.94 in 10.0 mi WSW 9.2 mph - N/A   Clear
10:52 PM 63.0 °F - 43.0 °F 48% 29.95 in 10.0 mi North 3.5 mph - N/A   Clear
11:52 PM 62.1 °F - 39.0 °F 43% 29.96 in 10.0 mi WNW 5.8 mph - N/A   Clear